Wind_Speed
28 28 27 27 26 26 27 27 28 28 29 29 29 30 31 32 33 34 35 35 36 36 35 35 35 35 35 35 34 34 32 31 30 30 30 30 30 31 31 31 31 31 32
29 29 29 28 28 28 28 28 29 29 30 30 31 31 31 32 32 32 33 33 34 34 34 35 35 35 34 34 34 34 34 33 33 33 33 33 33 34 34 34 35 35 35
30 29 29 29 28 28 29 30 30 31 31 32 32 33 33 33 32 32 33 33 33 33 34 34 35 35 35 35 36 36 36 36 36 36 37 37 37 38 38 39 39 39 40
31 30 29 29 29 29 31 31 32 32 32 33 34 34 34 34 34 33 33 34 34 34 34 35 36 36 37 38 39 40 40 40 40 40 41 41 41 41 42 43 44 44 45
31 31 30 30 31 32 33 34 34 34 35 35 35 36 36 36 36 35 35 35 36 37 37 38 39 40 42 43 43 44 44 44 44 44 44 44 45 45 46 47 48 48 49
32 32 32 32 33 34 35 35 36 36 36 36 36 36 37 37 37 37 37 37 38 39 41 42 43 44 45 46 47 47 48 47 47 47 47 47 48 48 49 50 51 52 53
33 33 33 34 34 34 35 35 36 36 36 36 36 37 37 37 37 38 38 39 40 42 43 45 46 48 48 49 49 49 49 49 49 49 50 51 51 52 52 53 54 56 57
34 34 34 34 33 34 34 35 35 35 35 35 36 37 37 37 38 39 40 41 42 44 45 47 48 49 49 50 50 50 50 51 51 52 53 53 54 54 55 57 58 60 61
38 36 35 34 33 34 34 34 34 34 35 35 36 37 37 38 39 40 41 42 44 45 46 47 48 49 49 50 51 51 52 53 53 54 54 55 56 57 59 61 62 63 63
40 38 36 35 35 35 35 35 35 35 36 36 37 37 38 39 40 41 42 43 45 46 47 48 49 50 50 51 52 53 53 54 55 56 57 58 60 62 63 64 65 65 66
44 42 40 38 38 38 37 36 36 36 36 37 38 38 39 39 40 41 43 44 45 47 48 50 50 51 52 52 53 53 54 55 57 58 60 62 64 65 66 67 67 68 69
47 46 44 42 41 40 39 38 37 36 37 38 39 40 40 40 41 42 43 44 46 47 50 52 53 54 54 54 54 55 56 58 60 62 63 65 66 67 68 69 70 71 73
50 48 47 45 44 42 40 39 38 38 38 39 40 41 41 41 42 43 45 46 47 48 50 52 55 56 56 56 57 59 60 62 63 64 65 66 67 69 70 71 73 75 76
51 50 48 46 45 44 42 40 40 40 40 41 41 42 42 43 44 46 48 49 50 51 52 54 56 57 58 59 61 62 63 65 66 66 67 69 70 71 73 75 77 79 81
51 50 48 47 46 44 42 41 41 41 41 42 42 43 44 44 46 48 51 53 55 56 56 56 58 59 61 62 63 64 65 66 67 68 70 72 74 76 78 81 84 87 90
50 49 47 46 45 43 42 42 42 42 43 43 44 44 45 46 49 51 54 57 59 60 60 61 62 63 63 64 65 65 66 67 69 71 74 76 79 82 86 89 92 95 97
48 47 46 45 44 42 42 42 43 43 44 44 44 45 46 49 52 55 58 60 62 63 64 64 66 66 67 67 66 67 68 70 73 77 80 84 87 91 95 97 98 98 96
46 45 44 43 42 41 41 42 44 45 45 45 45 47 49 52 56 59 61 62 64 65 66 66 67 68 68 69 69 71 73 76 80 84 88 92 96 97 97 96 92 87 81
44 42 41 40 40 40 41 43 44 45 45 45 47 50 54 57 59 60 62 64 66 67 68 68 68 68 69 72 73 75 78 82 88 92 95 97 95 93 88 83 76 70 65
41 40 39 39 39 40 41 43 44 45 46 48 51 54 57 58 60 62 64 66 67 67 68 69 69 70 72 75 78 80 83 88 91 94 93 90 85 80 74 69 64 60 58
37 37 37 37 38 40 41 42 44 46 48 51 54 56 58 60 62 64 66 67 67 68 69 71 71 73 76 79 82 85 87 88 87 85 81 76 72 68 64 62 60 58 57
34 34 34 36 38 40 40 42 45 48 51 53 55 57 59 61 63 65 67 67 69 70 72 73 75 78 81 84 85 86 86 83 77 72 69 63 62 60 59 58 58 58 57
32 32 34 38 40 41 42 45 48 50 51 53 56 58 60 63 64 66 67 68 70 73 76 78 79 82 84 85 85 82 78 73 67 63 61 56 56 56 56 56 57 57 56
31 33 36 37 39 42 44 45 47 49 52 54 57 59 61 63 65 66 68 70 73 76 79 82 84 85 85 83 79 74 68 62 57 56 59 56 54 54 52 52 55 56 55
32 34 34 36 39 40 42 44 47 50 53 56 58 60 62 64 66 69 71 74 76 79 82 85 85 83 79 74 69 63 58 55 53 53 58 57 54 52 48 47 51 52 51
31 32 33 35 37 39 42 45 48 51 54 56 59 61 64 66 70 73 75 77 79 81 82 81 78 73 67 61 57 55 54 54 54 53 54 53 50 48 42 39 42 46 46
Wind_Direction
280 281 281 280 280 280 282 283 285 286 286 285 284 284 284 282 280 279 277 277 278 279 280 281 280 279 278 276 276 277 278 280 283 286 288 288 286 284 281 280 278 278 277
277 279 280 282 282 282 283 285 287 288 289 288 287 286 286 285 284 282 280 280 280 280 281 281 280 280 278 276 275 275 276 278 280 282 284 285 283 281 279 278 277 277 278
274 276 278 280 282 284 285 287 288 289 289 289 288 287 286 285 284 283 282 281 281 281 281 281 280 280 278 277 276 276 277 278 279 280 281 282 281 279 277 276 275 275 276
270 272 274 276 279 282 284 287 289 290 290 290 289 287 286 285 284 283 281 281 281 281 281 280 280 279 279 279 278 278 278 278 279 279 280 280 280 279 277 275 274 273 274
267 268 270 273 276 279 282 285 288 289 289 289 289 288 286 285 285 283 282 281 282 282 282 281 280 280 280 280 280 280 279 279 278 278 278 279 279 278 277 275 274 274 274
265 267 269 272 275 278 281 284 286 287 288 288 288 288 287 286 286 285 284 283 283 283 283 283 282 282 282 281 281 281 280 279 278 278 277 277 277 277 276 275 275 274 275
265 266 268 270 274 278 281 284 286 287 287 287 288 288 288 287 288 288 287 285 284 284 284 285 285 285 284 283 282 281 280 279 278 278 277 277 277 276 276 276 276 276 276
264 265 267 270 273 277 280 283 286 287 288 288 289 290 290 289 289 289 289 289 288 288 287 287 286 286 285 284 283 281 280 280 279 278 278 277 277 277 277 277 277 277 277
263 265 267 269 272 275 278 282 285 287 289 289 290 290 290 290 290 290 291 290 290 290 289 289 288 287 286 285 283 283 282 281 280 279 279 278 278 278 278 278 278 278 277
264 266 268 269 271 274 277 281 284 286 288 289 290 290 289 289 290 291 291 291 292 293 292 292 291 289 288 286 285 284 284 283 283 282 282 282 282 281 281 281 280 279 279
264 266 268 270 271 273 276 279 282 285 286 287 288 289 290 290 291 293 294 295 295 296 296 295 293 292 290 289 287 286 285 285 285 285 285 285 285 284 284 283 283 282 281
262 264 266 269 271 273 275 277 280 282 284 286 287 287 289 290 291 293 294 296 297 298 298 297 296 294 292 291 289 288 288 288 288 288 287 287 286 286 285 284 283 282 282
261 263 265 267 270 272 274 276 277 279 282 284 285 286 288 290 291 292 293 295 295 296 296 296 296 295 293 292 292 291 291 290 290 289 288 287 286 285 284 283 282 281 281
259 261 263 266 268 271 273 274 275 278 281 283 284 286 288 290 291 292 293 294 295 296 296 296 296 295 294 294 294 293 293 292 291 290 288 287 286 285 284 284 283 282 282
256 259 262 264 266 269 271 272 274 277 280 283 284 286 287 289 291 292 293 295 296 297 296 296 296 296 296 295 295 294 293 292 291 290 289 288 287 287 286 286 286 285 284
255 257 259 262 265 267 268 271 273 277 280 283 285 287 288 289 291 292 294 296 297 297 297 297 297 297 297 296 295 294 293 292 291 291 290 290 290 290 290 289 289 288 287
253 255 257 260 263 265 267 270 273 278 281 284 286 287 289 290 291 293 294 295 297 297 298 298 298 298 297 296 295 295 294 294 294 294 293 293 293 293 293 292 291 290 288
251 253 256 259 261 263 267 271 275 279 282 284 286 288 290 291 292 293 294 295 296 297 298 298 298 298 297 296 296 295 296 296 296 296 297 297 297 296 295 294 292 290 288
248 251 254 257 259 262 266 270 276 280 283 286 287 289 291 291 292 293 295 296 297 297 298 298 298 297 297 296 297 297 298 299 299 300 300 299 299 297 296 293 291 289 286
246 250 253 256 259 263 267 273 277 280 283 286 288 289 290 291 293 294 295 296 297 298 298 298 298 298 297 298 298 299 300 301 302 301 301 300 299 297 294 292 290 288 285
244 249 253 256 260 264 269 274 278 282 285 288 288 289 291 292 294 295 296 297 298 297 297 298 298 298 299 299 300 301 302 303 303 301 300 299 297 296 294 293 291 288 286
243 247 252 257 261 265 270 275 279 283 285 287 289 291 292 293 295 296 298 298 298 298 298 299 299 300 300 301 302 303 303 303 302 299 298 297 296 295 294 293 290 288 286
240 247 253 258 262 267 270 274 279 284 286 289 291 293 294 295 297 298 298 299 299 299 300 300 301 301 302 302 303 304 304 304 303 299 297 296 295 295 293 291 289 287 285
242 248 256 261 264 267 271 278 284 288 290 292 293 295 296 297 298 298 299 299 300 300 301 301 303 304 304 304 304 304 304 303 302 300 298 298 296 295 293 290 288 286 284
248 251 257 265 269 275 282 286 289 292 293 295 296 297 298 299 299 299 300 301 301 302 302 303 304 304 304 304 305 305 305 304 303 302 300 301 300 297 295 291 288 286 285
251 257 263 272 280 286 289 291 293 295 296 298 299 300 300 301 301 301 301 302 302 302 303 304 305 305 305 306 306 307 307 307 306 305 303 303 303 300 296 290 285 284 285
Height
5821 5821 5820 5820 5820 5819 5818 5817 5816 5815 5814 5813 5812 5811 5809 5807 5805 5803 5802 5801 5800 5799 5798 5797 5796 5795 5794 5793 5792 5791 5791 5790 5789 5788 5787 5785 5784 5784 5784 5783 5783 5782 5782
5816 5815 5815 5815 5814 5813 5812 5811 5810 5809 5808 5807 5805 5804 5802 5800 5798 5796 5795 5794 5793 5792 5791 5790 5789 5788 5787 5786 5785 5784 5783 5782 5781 5780 5779 5778 5777 5776 5776 5775 5775 5774 5774
5809 5809 5809 5809 5808 5807 5806 5805 5803 5802 5801 5800 5798 5797 5795 5793 5791 5789 5788 5787 5786 5785 5783 5782 5781 5780 5779 5778 5777 5776 5775 5774 5773 5772 5771 5770 5769 5768 5767 5766 5766 5765 5765
5802 5803 5803 5803 5802 5801 5800 5798 5797 5796 5794 5792 5791 5789 5787 5785 5784 5782 5780 5779 5778 5777 5775 5774 5773 5772 5771 5769 5768 5767 5766 5764 5763 5762 5761 5760 5759 5758 5757 5756 5755 5754 5754
5795 5795 5796 5796 5795 5794 5793 5792 5790 5789 5787 5785 5783 5781 5779 5777 5776 5774 5772 5771 5769 5768 5767 5765 5764 5763 5762 5760 5759 5757 5756 5754 5753 5751 5750 5748 5747 5746 5745 5744 5743 5742 5742
5788 5788 5788 5788 5788 5787 5786 5784 5783 5781 5779 5777 5775 5773 5771 5769 5768 5766 5765 5763 5761 5759 5758 5756 5754 5753 5751 5750 5748 5746 5744 5743 5741 5740 5738 5736 5735 5733 5732 5731 5730 5729 5728
5781 5781 5781 5780 5780 5779 5778 5777 5775 5773 5771 5769 5767 5765 5763 5761 5760 5758 5756 5754 5752 5750 5748 5746 5744 5742 5740 5738 5736 5734 5732 5730 5728 5727 5725 5723 5722 5720 5718 5717 5715 5714 5713
5773 5773 5773 5773 5772 5771 5770 5769 5767 5766 5764 5762 5760 5757 5755 5754 5751 5749 5747 5744 5742 5740 5738 5735 5733 5731 5728 5726 5723 5721 5719 5717 5715 5713 5711 5709 5707 5706 5704 5702 5700 5698 5696
5763 5764 5765 5765 5764 5763 5762 5761 5760 5758 5756 5754 5752 5750 5747 5745 5743 5741 5738 5735 5732 5730 5727 5724 5722 5719 5717 5714 5711 5708 5705 5703 5700 5698 5696 5694 5692 5690 5688 5686 5683 5681 5679
5755 5756 5756 5756 5756 5755 5754 5753 5752 5750 5748 5746 5744 5741 5739 5737 5734 5732 5729 5726 5722 5719 5716 5712 5709 5706 5704 5701 5697 5694 5691 5688 5685 5682 5680 5677 5675 5672 5670 5667 5664 5662 5660
5746 5746 5747 5747 5747 5746 5746 5745 5743 5742 5740 5738 5735 5733 5730 5727 5725 5722 5719 5716 5712 5708 5704 5700 5696 5693 5690 5686 5683 5679 5676 5673 5670 5667 5663 5660 5656 5653 5650 5646 5643 5640 5638
5735 5737 5737 5738 5738 5737 5737 5736 5735 5733 5731 5729 5727 5724 5721 5719 5716 5713 5709 5706 5702 5697 5692 5686 5682 5679 5675 5671 5668 5664 5661 5658 5654 5650 5646 5641 5637 5633 5629 5626 5622 5618 5615
5725 5726 5727 5728 5728 5728 5727 5727 5726 5724 5722 5720 5718 5715 5712 5709 5706 5703 5699 5696 5692 5688 5683 5676 5670 5665 5661 5657 5652 5649 5645 5641 5637 5632 5628 5623 5618 5614 5610 5606 5602 5598 5594
5715 5716 5717 5718 5718 5718 5718 5717 5716 5715 5713 5711 5708 5706 5702 5699 5696 5692 5688 5684 5680 5677 5672 5665 5658 5652 5647 5642 5637 5633 5628 5623 5618 5613 5608 5603 5598 5593 5589 5584 5579 5574 5570
5704 5706 5707 5708 5708 5708 5708 5707 5707 5705 5703 5701 5698 5695 5692 5688 5684 5680 5675 5671 5667 5662 5659 5653 5645 5639 5632 5627 5621 5616 5611 5605 5599 5593 5587 5581 5576 5571 5565 5560 5554 5548 5542
5694 5696 5697 5698 5699 5699 5698 5697 5696 5695 5693 5691 5687 5684 5681 5677 5672 5667 5662 5657 5652 5647 5642 5637 5630 5623 5617 5610 5604 5598 5592 5586 5579 5572 5565 5559 5553 5546 5539 5532 5525 5517 5510
5684 5686 5688 5689 5689 5689 5688 5687 5686 5685 5683 5680 5677 5673 5669 5665 5660 5654 5649 5643 5637 5631 5626 5621 5613 5605 5598 5592 5585 5579 5572 5565 5558 5549 5541 5534 5526 5518 5509 5500 5491 5483 5475
5673 5676 5678 5679 5680 5680 5679 5678 5676 5675 5672 5669 5665 5662 5657 5652 5647 5641 5635 5629 5623 5616 5610 5605 5597 5589 5581 5573 5567 5560 5552 5544 5534 5525 5515 5506 5496 5486 5476 5466 5457 5450 5443
5664 5666 5668 5670 5671 5671 5670 5669 5667 5664 5661 5658 5654 5649 5644 5639 5633 5627 5621 5614 5607 5600 5593 5586 5580 5572 5563 5554 5547 5540 5531 5520 5509 5496 5486 5476 5465 5454 5444 5435 5428 5423 5418
5654 5657 5659 5660 5661 5661 5660 5658 5656 5653 5650 5646 5642 5637 5631 5625 5619 5613 5606 5599 5591 5583 5575 5568 5562 5554 5545 5535 5526 5519 5511 5497 5484 5468 5457 5447 5436 5427 5418 5411 5407 5402 5398
5646 5649 5650 5651 5652 5652 5650 5648 5646 5642 5639 5634 5629 5623 5617 5611 5604 5598 5590 5583 5575 5567 5559 5551 5544 5535 5525 5515 5506 5495 5486 5476 5461 5443 5434 5424 5413 5406 5397 5390 5385 5381 5378
5638 5640 5642 5642 5642 5642 5640 5638 5635 5631 5627 5622 5616 5610 5603 5596 5589 5582 5574 5566 5557 5548 5540 5533 5524 5514 5504 5493 5483 5472 5461 5452 5443 5426 5414 5408 5395 5389 5381 5374 5366 5361 5358
5631 5633 5634 5634 5633 5631 5629 5627 5623 5619 5614 5609 5602 5596 5589 5581 5573 5566 5558 5549 5539 5528 5520 5511 5502 5491 5482 5471 5461 5451 5438 5428 5419 5405 5396 5394 5382 5375 5367 5357 5349 5343 5340
5623 5624 5625 5625 5624 5622 5619 5616 5612 5607 5601 5595 5589 5582 5574 5566 5557 5549 5542 5533 5522 5510 5500 5489 5479 5468 5457 5446 5437 5428 5419 5411 5402 5388 5376 5375 5368 5360 5353 5342 5332 5325 5322
5616 5617 5617 5617 5615 5612 5609 5605 5600 5594 5588 5581 5574 5567 5559 5550 5542 5533 5525 5515 5505 5492 5479 5467 5456 5445 5435 5425 5416 5409 5401 5393 5387 5377 5360 5355 5349 5342 5338 5329 5317 5309 5305
5610 5610 5610 5608 5606 5603 5599 5594 5588 5582 5575 5568 5560 5551 5543 5534 5525 5514 5505 5495 5485 5473 5461 5448 5435 5424 5416 5407 5398 5391 5384 5376 5368 5361 5348 5339 5332 5323 5322 5317 5306 5297 5292